Home   Weather   Racine   Past weeks

Flag for USA Past Weather in Racine, Wisconsin, USA — Yesterday and Last 2 Weeks

Now
41 °F

Sunny.


Feels Like: 31 °F
Forecast: 40 / 46 °F
Wind: 22 mph from Northeast

Location: Batten International Airport

Current Time: Apr 29, 2017 at 12:41:32 pm

Latest Report: Apr 29, 2017 at 11:53 am


Visibility: 10 mi

Pressure: 30.26 "Hg

Humidity: 65%

Dew Point: 30 °F

Location of RacineLocation

Past Weather in Racine — Graph

°F

Racine Temperature Yesterday

Maximum temperature yesterday: 50 °F (at 10:53 am)
Minimum temperature yesterday: 37 °F (at 5:53 am)
Average temperature yesterday: 44 °F

High & Low Weather Summary for the Past Weeks

 TemperatureHumidityPressure
High80 °F (Apr 15, 12:53 pm)97% (Apr 27, 2:07 am)30.29 "Hg (Apr 27, 2:07 am)
Low37 °F (Apr 23, 3:53 am)20% (Apr 16, 4:53 pm)29.27 "Hg (Apr 27, 5:53 am)
Average52 °F67%29.93 "Hg
* Reported Apr 14 10:53 am — Apr 29 10:53 am, Racine, Weather by CustomWeather, © 2017

Note: Actual official high and low records may vary slightly from our data, if they occured in-between our weather recording intervals... More about our weather records

Advertising

Racine Weather History for the Previous 24 Hours

Scroll right to see more
 ConditionsComfort  
Time TempWeatherWind HumidityBarometerVisibility
10:53 am
Sat, Apr 29
43 °FSunny.24 mph65%30.24 "Hg10 mi
9:53 am42 °FSunny.21 mph68%30.23 "Hg10 mi
8:53 am41 °FPassing clouds.23 mph74%30.24 "Hg10 mi
7:53 am40 °FSunny.21 mph73%30.23 "Hg10 mi
6:53 am42 °FPassing clouds.17 mph68%30.22 "Hg10 mi
5:53 am43 °FOvercast.14 mph62%30.20 "Hg10 mi
4:53 am42 °FMostly cloudy.16 mph73%30.15 "Hg10 mi
3:53 am42 °FOvercast.17 mph76%30.12 "Hg10 mi
2:53 am43 °FOvercast.12 mph79%30.15 "Hg10 mi
2:30 am42 °FOvercast.13 mph82%30.08 "Hg10 mi
1:53 am42 °FOvercast.12 mph82%30.07 "Hg10 mi
12:53 am42 °FOvercast.10 mph85%30.06 "Hg8 mi
12:07 am42 °FFog.10 mph89%30.06 "Hg5 mi
11:53 pm
Fri, Apr 28
42 °FFog.9 mph89%30.07 "Hg4 mi
10:53 pm42 °FMostly cloudy.10 mph85%30.05 "Hg8 mi
10:19 pm43 °FMostly cloudy.15 mph86%30.02 "Hg7 mi
9:53 pm43 °FLow clouds.13 mph86%30.02 "Hg9 mi
8:53 pm44 °FOvercast.9 mph79%29.99 "Hg10 mi
7:53 pm44 °FOvercast.7 mph82%29.95 "Hg10 mi
6:53 pm46 °FOvercast.3 mph77%29.93 "Hg10 mi
5:53 pm46 °FOvercast.3 mph77%29.93 "Hg10 mi
4:53 pm47 °FOvercast.3 mph74%29.92 "Hg10 mi
3:53 pm47 °FOvercast.5 mph74%29.93 "Hg10 mi
2:53 pm47 °FLight rain. Overcast.7 mph71%29.94 "Hg10 mi
1:53 pm50 °FPartly sunny.9 mph59%29.96 "Hg10 mi
12:53 pm48 °FOvercast.9 mph61%29.98 "Hg10 mi
Weather by CustomWeather, © 2017

See weather overviewHow to use our weather pages